EA7NW Cordoba ES current weather conditions

sailwx.info

Wind from 225 at 1 knots gusting 6

Air temperature 7.8° C
Dewpoint 7.6° C

Last reported at 2014-Dec-22 03:45 UTC.
Time now 2014-Dec-22 04:57 UTC

Location: N 37°53' W 004°48'.
View on Google Maps.

See reports from other nearby stations

  
Tides and Currents Weather Stations Pressure Air Temp Water Temp Dewpoint Dewpoint Depression Visibility Wind Speed Wind Dir Waves Ship Positions
date/time (UTC)wind fromknots sea level pressurealtimeterstation pressurevisibilityair tempwater tempwave heightnotes
2014-Dec-22 03:45 225 1 gusting 6 7.8
2014-Dec-22 03:30 225 1 gusting 6 7.8
2014-Dec-22 03:15 225 1 gusting 5 7.8
2014-Dec-22 03:00 225 0 gusting 6 7.8
2014-Dec-22 02:45 225 2 gusting 6 7.8
2014-Dec-22 02:30 225 1 gusting 7 7.8
2014-Dec-22 02:15 225 1 gusting 5 7.8
2014-Dec-22 01:30 225 1 gusting 6 8.9
2014-Dec-22 01:15 225 0 gusting 6 8.9
2014-Dec-22 01:01 225 2 gusting 6 8.9
2014-Dec-22 00:31 225 2 gusting 6 8.9
2014-Dec-22 00:16 225 1 gusting 2 8.9
2014-Dec-22 00:01 225 0 gusting 2 8.9
2014-Dec-21 23:45 225 9.4
2014-Dec-21 23:30 225 0 gusting 2 9.4
2014-Dec-21 23:15 225 9.4
2014-Dec-21 23:00 225 9.4
2014-Dec-21 22:45 225 9.4
2014-Dec-21 22:15 225 1 gusting 2 10.0
2014-Dec-21 22:00 225 10.6
2014-Dec-21 21:45 225 10.6
2014-Dec-21 21:15 225 11.1
2014-Dec-21 21:00 225 11.1
2014-Dec-21 20:45 225 11.1
2014-Dec-21 20:15 225 0 gusting 1 11.7
2014-Dec-21 19:45 225 12.2
2014-Dec-21 19:30 225 12.2
2014-Dec-21 19:15 225 12.2
2014-Dec-21 19:00 225 12.8
2014-Dec-21 18:45 225 13.3
2014-Dec-21 18:30 225 0 gusting 2 13.3
2014-Dec-21 17:15 225 15.0
2014-Dec-21 17:00 225 0 gusting 2 15.6
2014-Dec-21 16:30 225 0 gusting 6 16.1
2014-Dec-21 16:00 225 0 gusting 4 16.7
2014-Dec-21 15:45 225 0 gusting 5 16.7
2014-Dec-21 15:15 225 17.2
2014-Dec-21 15:01 225 17.2
2014-Dec-21 14:45 225 0 gusting 6 16.7
2014-Dec-21 13:45 270 5 gusting 7 16.1
2014-Dec-21 13:15 270 3 gusting 6 15.0
2014-Dec-21 12:45 259 1 gusting 6 14.4
2014-Dec-21 12:30 225 0 gusting 6 14.4
2014-Dec-21 11:45 270 4 gusting 6 12.8
2014-Dec-21 11:00 270 1 gusting 4 11.7
2014-Dec-21 10:45 270 0 gusting 4 11.1
2014-Dec-21 10:00 270 3 gusting 7 9.4
2014-Dec-21 09:45 258 5 gusting 7 8.9
2014-Dec-21 09:15 225 1 gusting 6 8.9
2014-Dec-21 09:00 225 0 gusting 5 8.9
2014-Dec-21 08:45 225 8.9
2014-Dec-21 06:30 225 0 gusting 2 7.2
2014-Dec-21 06:15 225 0 gusting 2 7.2
2014-Dec-21 06:00 225 7.2
2014-Dec-21 05:30 225 6.7
2014-Dec-21 05:15 225 6.7
2014-Dec-21 04:45 225 7.2
2014-Dec-21 04:30 225 7.2
2014-Dec-21 04:15 225 7.2
2014-Dec-21 04:00 225 7.8
2014-Dec-21 03:45 225 7.8
2014-Dec-21 03:15 225 7.8
2014-Dec-21 02:00 225 2 gusting 5 8.9
2014-Dec-21 01:30 264 0 gusting 6 8.9
2014-Dec-21 01:15 225 2 gusting 5 8.9
2014-Dec-21 01:00 258 2 gusting 6 8.9
2014-Dec-21 00:01 225 1 gusting 4 9.4
2014-Dec-20 23:30 225 1 gusting 5 10.6
2014-Dec-20 23:00 225 1 gusting 6 10.6
2014-Dec-20 22:30 225 1 gusting 6 10.6
2014-Dec-20 22:15 250 1 gusting 7 10.6
2014-Dec-20 22:00 238 6 gusting 8 11.1
2014-Dec-20 21:01 301 5 gusting 7 11.7
2014-Dec-20 20:30 270 5 gusting 8 12.2
2014-Dec-20 19:45 270 2 gusting 6 12.8
2014-Dec-20 19:33 270 2 gusting 5 13.3
2014-Dec-20 19:15 270 2 gusting 5 13.3
2014-Dec-20 18:45 270 1 gusting 4 13.9
2014-Dec-20 18:30 270 1 gusting 2 14.4
2014-Dec-20 18:15 270 14.4
2014-Dec-20 18:00 270 1 gusting 2 14.4
2014-Dec-20 17:15 225 16.1
2014-Dec-20 16:30 225 0 gusting 1 17.8
2014-Dec-20 16:00 225 0 gusting 5 17.2
2014-Dec-20 15:45 225 0 gusting 5 17.8
2014-Dec-20 15:30 225 1 gusting 5 17.8
2014-Dec-20 15:15 225 1 gusting 5 17.8
2014-Dec-20 14:45 225 1 gusting 5 17.8
2014-Dec-20 14:30 270 4 gusting 6 17.2
2014-Dec-20 14:01 270 2 gusting 6 16.7
2014-Dec-20 13:30 265 2 gusting 6 15.6
2014-Dec-20 13:15 270 3 gusting 6 15.0
2014-Dec-20 13:00 320 2 gusting 6 15.6
2014-Dec-20 12:45 254 2 gusting 6 15.0
2014-Dec-20 12:30 201 1 gusting 6 14.4
2014-Dec-20 12:15 262 0 gusting 6 13.9
2014-Dec-20 11:45 225 1 gusting 5 12.8
2014-Dec-20 11:30 219 0 gusting 5 11.7
2014-Dec-20 11:15 180 1 gusting 5 11.1
2014-Dec-20 11:00 225 2 gusting 5 10.6
2014-Dec-20 10:45 208 1 gusting 6 10.0
2014-Dec-20 10:30 225 1 gusting 5 9.4
2014-Dec-20 10:00 180 0 gusting 4 8.3
2014-Dec-20 09:45 180 7.8
2014-Dec-20 09:30 135 0 gusting 2 7.2
2014-Dec-20 09:00 210 1 gusting 5 6.7
2014-Dec-20 08:45 270 0 gusting 5 6.7
2014-Dec-20 08:15 225 1 gusting 6 6.1
2014-Dec-20 08:00 180 1 gusting 5 6.1
2014-Dec-20 07:45 180 0 gusting 2 6.1
2014-Dec-20 07:30 213 0 gusting 5 6.1
2014-Dec-20 07:15 225 0 gusting 4 6.1
2014-Dec-20 07:00 225 6.1
2014-Dec-20 06:15 226 2 gusting 5 6.7
2014-Dec-20 05:45 225 0 gusting 5 6.7
2014-Dec-20 05:30 188 1 gusting 5 6.7
2014-Dec-20 05:15 6.7
2014-Dec-20 05:00 180 0 gusting 2 6.7
2014-Dec-20 04:30 180 6.7
2014-Dec-20 04:00 180 7.2